sat.trackr.live / text

‹ back to catalog

STARLINK-36322

NORAD 68522 · 2026-068Q

PAYLOAD ACTIVE UNKNOWN

§ Identity

Operator
Country
US
Launch date
2026-03-30
Launch site
AFETR
Launch vehicle
Mass (kg)
RCS (m²)

Purposes: comms

External: N2YO · Heavens-Above · Gunter

§ Orbital elements

Epoch: 2026-05-25T02:53:27.869280Z

Period
93.85 min
Inclination
53.1589°
Eccentricity
0.0001259
Mean motion
15.34401918 rev/d
Perigee alt
461.8 km
Apogee alt
463.6 km
Semi-major
6,840.8 km
B*
4.8606e-4
RAAN
133.0562°
Arg perigee
63.3921°
Mean anomaly
296.7210°
Rev number
866

§ Raw data

STARLINK-363221 68522U 26068Q   26145.12046145  .00016082  00000+0  48606-3 0  99992 68522  53.1589 133.0562 0001259  63.3921 296.7210 15.34401918  8660

JSON: /api/v1/satellites/68522 · /tle

For live sub-satellite position, see the globe view (requires WebGL).

§ Visibility from observer

Set your observer location to see the next 7 days of passes ≥ 10°. The values pass through the URL so the page stays shareable.

No JS? Fill the form by hand. The geolocation button needs JavaScript.